Weather History for Cedar City, UT

Change the Weather History Date:

Saturday, June 22, 2013

  Actual Average Record
Temperature  
Mean Temperature 66 °F 68 °F  
Max Temperature 85 °F 86 °F 100 °F (1954)
Min Temperature 46 °F 50 °F 36 °F (1989)
Degree Days  
Heating Degree Days 0 1  
Month to date heating degree days 11 70  
Since 1 June heating degree days 11 70  
Since 1 July heating degree days 6134 6249  
Cooling Degree Days 1 4  
Month to date cooling degree days 77 53  
Year to date cooling degree days 79 61  
Since 1 June cooling degree days 77 53  
Growing Degree Days 15 (Base 50)    
Moisture  
Dew Point 20 °F    
Average Humidity 22    
Maximum Humidity 34    
Minimum Humidity 9    
Precipitation  
Precipitation 0.00 in 0.02 in 0.39 in (1972)
Month to date precipitation 0.00 0.43  
Year to date precipitation 4.06 5.47  
Sea Level Pressure  
Sea Level Pressure 29.80 in    
Wind  
Wind Speed 5 mph (SW)    
Max Wind Speed 14 mph    
Max Gust Speed 18 mph    
Visibility 10 miles    
Events      
T = Trace of Precipitation, MM = Missing Value Source: NWS Daily Summary

Daily Weather History Graph

Daily Weather History Graph

Search for Another Location

Airport:

Trip Planner

Search our weather history database for the weather conditions in past years. The results will help you decide how hot, cold, wet, or windy it might be!

Date:

Astronomy

Jun. 22, 2013 Rise Set
Actual Time 6:11 AM MDT 8:57 PM MDT
Civil Twilight 5:39 AM MDT 9:29 PM MDT
Nautical Twilight 5:00 AM MDT 10:08 PM MDT
Astronomical Twilight 4:16 AM MDT 10:52 PM MDT
Moon 8:17 PM MDT (6/22) 5:26 AM MDT (6/22)
Length of Visible Light 15h 49m
Length of Day
14h 46m
Waxing Gibbous, 99% of the Moon is Illuminated
Jun 22
Waxing Gibbous
Jun 23
Full
Jun 29
Last Quarter
Jul 8
New
Jul 15
First Quarter

Hourly Weather History & Observations

Time (MDT) Temp. Dew Point Humidity Pressure Visibility Wind Dir Wind Speed Gust Speed Precip Events Conditions
12:53 AM 59.0 °F 18.0 °F 20% 29.75 in 10.0 mi SSW 6.9 mph - N/A   Clear
1:53 AM 60.1 °F 19.0 °F 20% 29.73 in 10.0 mi South 8.1 mph - N/A   Clear
2:53 AM 64.0 °F 19.0 °F 18% 29.72 in 10.0 mi Calm Calm - N/A   Clear
3:53 AM 46.9 °F 21.0 °F 36% 29.81 in 10.0 mi North 3.5 mph - N/A   Clear
4:53 AM 46.9 °F 21.9 °F 37% 29.81 in 10.0 mi West 3.5 mph - N/A   Clear
5:53 AM 51.1 °F 19.9 °F 29% 29.82 in 10.0 mi SSW 3.5 mph - N/A   Clear
6:53 AM 54.0 °F 21.9 °F 29% 29.83 in 10.0 mi Calm Calm - N/A   Clear
7:53 AM 57.0 °F 23.0 °F 27% 29.86 in 10.0 mi Calm Calm - N/A   Clear
8:53 AM 61.0 °F 25.0 °F 25% 29.87 in 10.0 mi Calm Calm - N/A   Clear
9:53 AM 64.9 °F 21.9 °F 19% 29.87 in 10.0 mi Calm Calm - N/A   Clear
10:53 AM 71.1 °F 21.9 °F 16% 29.87 in 10.0 mi Variable 3.5 mph - N/A   Clear
11:53 AM 73.0 °F 21.0 °F 14% 29.88 in 10.0 mi Variable 3.5 mph - N/A   Clear
12:53 PM 77.0 °F 19.9 °F 12% 29.85 in 10.0 mi Variable 3.5 mph - N/A   Clear
1:53 PM 79.0 °F 19.9 °F 11% 29.82 in 10.0 mi WSW 5.8 mph - N/A   Clear
2:53 PM 82.9 °F 21.0 °F 10% 29.77 in 10.0 mi Variable 6.9 mph - N/A   Clear
3:53 PM 82.9 °F 21.0 °F 10% 29.80 in 10.0 mi NW 10.4 mph 18.4 mph N/A   Clear
4:53 PM 84.0 °F 18.0 °F 9% 29.78 in 10.0 mi NNE 5.8 mph - N/A   Clear
5:53 PM 82.9 °F 16.0 °F 8% 29.75 in 10.0 mi SSW 9.2 mph 20.7 mph N/A   Clear
6:53 PM 82.0 °F 17.1 °F 9% 29.74 in 10.0 mi SW 12.7 mph - N/A   Clear
7:53 PM 80.1 °F 16.0 °F 9% 29.74 in 10.0 mi SW 12.7 mph 20.7 mph N/A   Clear
8:53 PM 73.9 °F 18.0 °F 12% 29.76 in 10.0 mi SSW 8.1 mph - N/A   Clear
9:53 PM 69.1 °F 17.1 °F 14% 29.78 in 10.0 mi South 8.1 mph - N/A   Clear
10:53 PM 66.0 °F 19.0 °F 17% 29.78 in 10.0 mi ESE 5.8 mph - N/A   Clear
11:53 PM 63.0 °F 19.0 °F 18% 29.78 in 10.0 mi SSE 5.8 mph - N/A   Clear